This demonstration page uses our WeatherBlox Daily Observations layout. Learn more.

Left ArrowRight Arrow

38.80484, -77.04692

Hourly Observations for September 14, 2020

Temp ( °F °C ) Dew Point ( °F °C ) Humidity (%) Winds ( mph kmh ) Pressure ( in mb ) Visibility ( mi km ) Precip ( " mm )
12:52 am 00:52 Cloudy 74 23.3 70 21.1 88 88 S 3 6 30.06 1018 10 16 N/A
1:52 am 01:52 Mostly Cloudy 74 23.3 69 20.6 85 85 S 3 6 30.05 1018 10 16 N/A
2:52 am 02:52 Cloudy 74 23.3 67 19.4 79 79 WSW 3 6 30.05 1018 10 16 N/A
3:52 am 03:52 Cloudy 73 22.8 68 20 84 84 N 3 6 30.06 1018 10 16 N/A
4:52 am 04:52 Cloudy 73 22.8 68 20 84 84 N 8 13 30.07 1018 10 16 N/A
5:52 am 05:52 Cloudy with Light Rain 73 22.8 69 20.6 87 87 NNW 7 11 30.09 1019 10 16 0.00 0.00
6:52 am 06:52 Cloudy 73 22.8 68 20 84 84 NNW 9 15 30.11 1020 10 16 0.00 0.00
7:52 am 07:52 Cloudy 73 22.8 66 18.9 79 79 N 12 19 30.14 1021 10 16 N/A
8:52 am 08:52 Cloudy 73 22.8 64 17.8 74 74 N 13 20 30.15 1021 10 16 N/A
9:52 am 09:52 Mostly Cloudy 73 22.8 61 16.1 66 66 N 13 20 30.17 1022 10 16 N/A
10:52 am 10:52 Mostly Cloudy 75 23.9 61 16.1 62 62 N 13 20 30.18 1022 10 16 N/A
11:52 am 11:52 Partly Cloudy 77 25 60 15.6 56 56 N 14 22 30.17 1022 10 16 N/A
12:52 pm 12:52 Mostly Cloudy 78 25.6 60 15.6 54 54 N 14 22 30.17 1022 10 16 N/A
1:52 pm 13:52 Mostly Cloudy 77 25 59 15 54 54 N 15 24 30.16 1021 10 16 N/A
2:52 pm 14:52 Mostly Cloudy 79 26.1 55 12.8 44 44 N 16 26 30.16 1021 10 16 N/A
3:52 pm 15:52 Mostly Cloudy 79 26.1 57 13.9 47 47 N 12 19 30.15 1021 10 16 N/A
4:52 pm 16:52 Mostly Cloudy 78 25.6 57 13.9 48 48 N 9 15 30.15 1021 10 16 N/A
5:52 pm 17:52 Mostly Cloudy 75 23.9 56 13.3 52 52 N 10 17 30.16 1021 10 16 N/A
6:52 pm 18:52 Mostly Cloudy 74 23.3 54 12.2 50 50 NNE 10 17 30.17 1022 10 16 N/A
7:52 pm 19:52 Mostly Cloudy 72 22.2 55 12.8 55 55 NNE 9 15 30.19 1022 10 16 N/A
8:52 pm 20:52 Mostly Cloudy 70 21.1 53 11.7 55 55 NNE 15 24 30.21 1023 10 16 N/A
9:52 pm 21:52 Mostly Cloudy 68 20 53 11.7 59 59 N 9 15 30.24 1024 10 16 N/A
10:52 pm 22:52 Mostly Cloudy 67 19.4 52 11.1 59 59 NNE 10 17 30.24 1024 10 16 N/A
11:52 pm 23:52 Mostly Cloudy 66 18.9 52 11.1 61 61 N 13 20 30.26 1025 10 16 N/A

Powered by AerisWeather